Find Starlink 35018

NORAD ID: 65288 Int'l Des: 2025-184 Owner: SPXS Country: US Constellation: starlink operational
LEOCIRCULARRETROGRADESSO

現在のビュー

3D地球を読み込み中...

Starlink 35018について

説明を読み込み中...

次回通過

Passes for default location (London). Set your location on the main map for personalized predictions.

高度履歴

Loading altitude history...

軌道要素

1 65288U 25184R 26148.64733285 .00003014 00000-0 21283-3 0 9995
2 65288 97.4322 201.0563 0002730 138.3904 221.7531 15.05656768 43338
Epoch: May 28, 2026 • Age: 35 hours

現在のステータス

高度 555.3 km
速度 7.58 km/s
衛星直下点 -7.64°S, 83.05°W
打ち上げ日 Aug 22, 2025
運用期間 0.7 years
タイプ internet

技術仕様

分類 Payload
質量 575.00 kg
乾燥質量 530.00 kg
総質量 575.00 kg
長さ 0.30 m
直径 4.10 m
スパン 29.00 m
形状 Box + pan
製造者 SPXS
バスタイプ Starlink V2MO
フェーズステータス In Orbit
所有者/国 SPXS/US

Most Searched